STARLINK-35332, 65887

Orbit data source: Space-Track

STARLINK-35332, 65887 is a payload satellite owned by SpaceX/Seattle (US) in LEO that was launched on Tue, 07 Oct 2025 UTC via an FALCON 9 launch vehicle from the Air Force Eastern Test Range (AFETR). Payload-class satellites include a variety of spacecraft equipped with specific instruments for various scientific and technological missions. These include communications satellites like Starlink; space stations such as the ISS; scientific satellites like the Hubble; Earth observation satellites from companies like Planet Labs, Umbra, and HawkEye 360; GPS; miniature CubeSats for education and research; and military/defense satellites.

Loading next visibility...
Identifier
65887, 2025-224F
Orbit
LEO
Country
Flag of USUS
Related business
Manufacturer
SpaceX/Seattle
Mission
Operational Commercial Communications
Bus & Motor
STARLINK V2MO, Unknown motor
Mass
575 kg wet, ~530 kg dry
Launch date (UTC)
2025-10-07 (5 months ago)
Launch vehicle
FALCON 9
Launch site
Air Force Eastern Test Range (AFETR)
Object type
Payload
Rocket body
Debris
Shape & HBR
Box + 2 Pan, 17.7 m
Radar Cross Section
36.964 m²

Expand to show TLE details & history
Last TLE update: 13 hours ago

TLE from 13 hours ago
0 STARLINK-35332
1 65887U 25224F   26062.25326663  .00004840  00000-0  17558-3 0  9993
2 65887  53.1606  40.9075 0001453  66.4257 293.6896 15.30172299 23877
Epoch: 2026-03-03T06:04Z
TLE epoch observation values (Epoch: 2026-03-03T06:04:42.236Z)
Latitude
-0.00006°
Longitude
148.69649°
Altitude
475.798 km
Speed
7.629 km/s
True Right ascension
02h 43m 37s
True Declination
0° 00' 00"
Sunlit
Object was in daylight at epoch
Visualization orbit readout
Latitude
Unknown
Longitude
Unknown
Altitude
Unknown
Speed
Unknown
Apparent Right ascension
Unknown
Apparent Declination
Unknown
Sunlit
N/A
Visualization observer readout
Local Sidereal Time
23:08:08
Azimuth
Unknown
Elevation
Unknown
Doppler factor
Unknown
Orbital elements
Apogee altitude
476.55 km
Perigee altitude
474.558 km
Semi-major axis
6,853.691 km
Eccentricity
0.00015
Inclination
53.1606°
RAAN
40.9075°
Arg. of periapsis
66.4257°
True anomaly
293.67435°
Mean anomaly
293.6896°
Eccentric anomaly
293.68198°
Mean motion
3.82522 °/min
Orbital period
94.11 mins
BSTAR
0.00017558
Loading maneuver chart data...
Computing Atmospheric mass density...
Loading historical data...
Loading historical data...
Loading historical data...
Loading historical data...
Loading historical data...
Loading historical data...
Loading historical data...

Documentation

Showing up to 5 results
|